User: anonymous   Login
Location: Unspecified
(0.0000°N, 0.0000°E)
Time: 06:05:48
(UTC+01:00)
Language:

PSLV R/B - Orbit

View from above orbital plane
View from above orbital plane
View from above satellite
View from above satellite

Ground track
Ground track

The orbit data is extracted from the following two-line orbital elements,

1 29713U 07001E   17053.54993083  .00000340  00000-0  45868-4 0  9999
2 29713  97.7505  29.0503 0026624 110.4892 249.9184 14.85006810547052
Epoch (UTC): 22 February 2017 13:11:54
Eccentricity: 0.0026624
inclination: 97.7505°
perigee height: 595 km
apogee height: 632 km
right ascension of ascending node: 29.0503°
argument of perigee: 110.4892°
revolutions per day: 14.85006810
mean anomaly at epoch: 249.9184°
orbit number at epoch: 54705

The dashed part of the orbit path shows where the satellite is in the earth's shadow,  

DLR